Temp
-14 -14 -14 -15 -14 -14 -14 -14 -14 -13 -14 -14 -13 -13 -13 -12 -12 -12 -11 -11 -10 -10 -10 -11 -12 -14 -16 -18 -20 -22 -23 -24 -25 -26 -26 -26 -25 -23 -22 -21 -21 -19 -19 -18 -16 -16 -16
-15 -15 -15 -15 -15 -15 -14 -14 -14 -14 -14 -14 -14 -13 -13 -13 -12 -12 -12 -11 -10 -11 -11 -12 -13 -15 -17 -20 -22 -23 -25 -25 -27 -26 -26 -26 -25 -25 -23 -22 -21 -19 -18 -17 -16 -15 -16
-15 -15 -15 -16 -15 -16 -15 -14 -14 -14 -14 -14 -14 -14 -13 -13 -13 -12 -12 -11 -10 -11 -11 -12 -14 -16 -19 -21 -23 -25 -26 -26 -26 -26 -25 -25 -25 -25 -24 -22 -21 -20 -19 -18 -16 -14 -15
-15 -16 -16 -16 -17 -17 -16 -15 -14 -14 -14 -13 -14 -14 -14 -13 -13 -13 -12 -11 -11 -11 -12 -13 -15 -17 -20 -22 -25 -25 -26 -27 -26 -25 -25 -25 -24 -24 -23 -21 -21 -20 -19 -18 -16 -16 -15
-16 -17 -18 -18 -17 -17 -17 -16 -15 -15 -14 -13 -14 -14 -14 -13 -13 -13 -12 -11 -11 -12 -13 -14 -16 -18 -21 -24 -25 -26 -26 -27 -25 -25 -25 -24 -24 -23 -24 -22 -21 -21 -19 -16 -16 -15 -16
-17 -17 -18 -18 -18 -18 -17 -16 -16 -14 -14 -14 -14 -14 -14 -13 -13 -13 -12 -11 -12 -12 -13 -15 -17 -20 -22 -23 -25 -26 -27 -26 -25 -24 -24 -24 -24 -23 -22 -22 -21 -20 -19 -18 -17 -16 -16
-17 -17 -17 -18 -18 -18 -17 -17 -16 -15 -14 -14 -15 -14 -14 -13 -13 -13 -12 -11 -12 -13 -14 -15 -18 -21 -21 -22 -23 -25 -25 -25 -25 -24 -24 -24 -23 -23 -22 -22 -20 -20 -19 -18 -17 -17 -16
-18 -18 -18 -17 -17 -17 -17 -17 -16 -15 -14 -14 -14 -14 -14 -13 -13 -13 -12 -12 -12 -14 -14 -17 -20 -22 -21 -22 -23 -23 -24 -23 -23 -23 -23 -23 -22 -22 -22 -22 -20 -20 -20 -19 -18 -17 -17
-21 -21 -20 -18 -17 -17 -17 -17 -16 -16 -14 -15 -15 -14 -14 -13 -13 -12 -11 -12 -13 -14 -15 -19 -21 -21 -21 -21 -22 -22 -22 -23 -22 -22 -23 -22 -21 -21 -21 -20 -20 -20 -19 -19 -18 -17 -17
-24 -24 -24 -23 -19 -17 -17 -17 -16 -16 -15 -15 -15 -14 -14 -14 -13 -12 -12 -12 -13 -14 -16 -19 -21 -21 -21 -21 -21 -22 -21 -22 -22 -22 -22 -22 -21 -20 -21 -19 -20 -19 -19 -19 -18 -18 -17
-25 -26 -26 -25 -23 -18 -17 -16 -16 -16 -15 -15 -14 -14 -14 -13 -13 -12 -12 -12 -14 -14 -17 -20 -21 -21 -21 -21 -21 -21 -21 -22 -21 -21 -21 -21 -20 -19 -20 -20 -20 -20 -19 -19 -18 -17 -18
-28 -28 -28 -26 -23 -18 -17 -16 -16 -16 -15 -15 -14 -14 -14 -13 -13 -11 -11 -12 -13 -14 -17 -19 -20 -20 -20 -21 -21 -21 -20 -21 -21 -21 -21 -20 -20 -20 -20 -19 -19 -19 -19 -19 -18 -17 -18
-28 -29 -28 -28 -23 -18 -17 -16 -16 -16 -15 -15 -15 -14 -13 -14 -13 -11 -11 -12 -13 -15 -16 -19 -19 -20 -20 -20 -20 -20 -19 -20 -20 -20 -20 -20 -19 -19 -19 -19 -19 -19 -18 -18 -19 -19 -18
-28 -28 -28 -27 -23 -18 -17 -16 -16 -16 -16 -17 -15 -14 -13 -14 -12 -11 -11 -12 -13 -14 -16 -18 -19 -19 -20 -20 -20 -19 -20 -20 -20 -20 -19 -19 -19 -19 -19 -19 -19 -19 -18 -18 -18 -17 -17
-27 -27 -27 -27 -23 -18 -17 -16 -16 -16 -16 -17 -15 -14 -13 -13 -12 -11 -11 -12 -12 -14 -16 -18 -19 -18 -19 -19 -19 -19 -19 -19 -19 -19 -19 -19 -19 -19 -19 -19 -19 -19 -18 -18 -18 -18 -17
-25 -25 -25 -25 -22 -18 -17 -16 -16 -16 -16 -17 -15 -14 -13 -13 -11 -12 -11 -12 -12 -13 -15 -17 -18 -18 -18 -19 -19 -19 -19 -20 -19 -19 -19 -19 -19 -19 -19 -19 -19 -18 -18 -18 -18 -18 -17
-24 -24 -24 -24 -20 -18 -18 -17 -16 -16 -17 -15 -14 -13 -13 -12 -12 -12 -11 -11 -12 -13 -14 -16 -18 -18 -18 -18 -19 -19 -18 -19 -19 -19 -19 -19 -18 -18 -19 -18 -18 -18 -18 -18 -18 -18 -17
-24 -24 -24 -21 -18 -18 -16 -16 -16 -16 -16 -15 -14 -13 -13 -12 -12 -11 -11 -11 -12 -12 -13 -15 -17 -18 -18 -18 -18 -18 -18 -18 -19 -19 -19 -19 -19 -19 -19 -19 -19 -19 -19 -18 -18 -18 -18
-24 -23 -23 -20 -19 -17 -16 -16 -16 -16 -15 -15 -14 -13 -13 -12 -11 -11 -11 -11 -11 -12 -13 -14 -16 -17 -18 -18 -18 -18 -18 -18 -18 -19 -19 -19 -18 -19 -19 -18 -18 -18 -18 -18 -18 -18 -18
-23 -22 -21 -20 -18 -16 -16 -17 -17 -15 -15 -14 -13 -13 -13 -12 -11 -11 -11 -11 -11 -11 -12 -13 -14 -16 -17 -18 -18 -18 -18 -18 -18 -18 -18 -19 -18 -19 -19 -18 -18 -18 -18 -18 -18 -19 -19
-23 -21 -19 -18 -16 -16 -16 -16 -16 -15 -14 -14 -14 -14 -13 -12 -12 -11 -11 -11 -11 -12 -12 -12 -14 -15 -17 -17 -18 -18 -18 -18 -18 -18 -18 -18 -19 -18 -19 -19 -19 -19 -19 -19 -19 -19 -19
-21 -19 -18 -16 -16 -16 -16 -15 -15 -15 -14 -14 -14 -14 -13 -12 -11 -11 -11 -11 -11 -12 -12 -12 -13 -13 -14 -15 -17 -17 -18 -18 -18 -18 -18 -18 -18 -18 -18 -19 -19 -19 -19 -18 -19 -19 -19
-20 -20 -18 -17 -17 -17 -16 -16 -15 -15 -14 -14 -14 -13 -13 -12 -12 -12 -11 -11 -11 -12 -12 -12 -12 -13 -13 -14 -15 -15 -17 -17 -18 -18 -18 -18 -18 -18 -18 -18 -19 -19 -18 -19 -19 -19 -19
-20 -19 -18 -17 -17 -16 -16 -16 -15 -14 -14 -14 -14 -13 -13 -12 -12 -12 -11 -11 -11 -12 -12 -12 -12 -13 -13 -13 -14 -14 -14 -15 -16 -17 -18 -18 -18 -18 -19 -18 -19 -19 -19 -19 -19 -19 -18
-20 -18 -17 -17 -17 -16 -16 -15 -15 -15 -14 -14 -14 -13 -13 -12 -12 -12 -12 -12 -12 -12 -12 -12 -13 -13 -13 -13 -14 -14 -14 -15 -15 -16 -16 -17 -17 -18 -18 -19 -18 -19 -19 -19 -19 -19 -19
-18 -18 -18 -17 -16 -16 -15 -15 -15 -15 -13 -14 -14 -13 -13 -12 -12 -12 -12 -12 -12 -12 -12 -12 -12 -13 -13 -13 -14 -14 -14 -15 -15 -16 -16 -17 -17 -17 -18 -18 -18 -18 -19 -19 -19 -20 -20
-18 -18 -17 -17 -16 -16 -15 -14 -15 -14 -14 -14 -14 -13 -13 -13 -12 -12 -12 -12 -12 -12 -12 -13 -13 -13 -13 -13 -14 -14 -15 -15 -15 -16 -16 -16 -17 -18 -18 -19 -19 -19 -19 -19 -19 -19 -20
-17 -17 -17 -16 -16 -16 -15 -15 -15 -15 -14 -14 -13 -13 -13 -13 -13 -12 -12 -12 -12 -12 -12 -13 -13 -13 -13 -14 -14 -14 -14 -15 -15 -16 -16 -16 -17 -17 -18 -19 -19 -20 -20 -20 -20 -20 -20
-18 -17 -17 -16 -15 -15 -15 -14 -15 -14 -14 -13 -13 -13 -13 -13 -13 -13 -13 -12 -12 -12 -13 -13 -13 -13 -13 -14 -14 -14 -15 -15 -15 -16 -16 -16 -17 -17 -18 -19 -19 -20 -20 -20 -21 -21 -21
Height
5758 5753 5751 5748 5744 5743 5740 5738 5733 5731 5730 5728 5726 5723 5719 5716 5713 5708 5701 5695 5688 5679 5668 5654 5643 5630 5617 5608 5600 5587 5579 5570 5562 5559 5560 5561 5565 5578 5593 5611 5621 5632 5649 5664 5675 5687 5699
5743 5742 5739 5736 5734 5733 5732 5730 5727 5724 5721 5720 5719 5718 5713 5709 5706 5701 5695 5688 5680 5670 5659 5645 5633 5618 5605 5596 5586 5577 5568 5560 5553 5552 5551 5553 5558 5568 5580 5600 5613 5630 5646 5658 5673 5682 5693
5731 5727 5726 5724 5722 5722 5721 5722 5719 5718 5713 5712 5712 5709 5707 5703 5699 5695 5689 5681 5672 5662 5650 5636 5622 5606 5595 5585 5575 5567 5559 5552 5549 5550 5552 5553 5557 5563 5576 5594 5610 5620 5638 5650 5665 5678 5685
5717 5712 5710 5710 5709 5710 5711 5711 5711 5708 5707 5705 5705 5703 5701 5697 5693 5689 5682 5675 5665 5655 5643 5628 5612 5596 5585 5573 5565 5561 5555 5550 5549 5550 5552 5554 5557 5563 5572 5588 5605 5615 5631 5641 5657 5665 5679
5700 5698 5696 5696 5697 5698 5699 5700 5701 5700 5699 5697 5697 5698 5696 5691 5687 5683 5677 5669 5659 5649 5636 5621 5604 5589 5577 5566 5560 5555 5552 5550 5551 5552 5554 5556 5558 5563 5572 5586 5599 5607 5623 5637 5646 5657 5671
5683 5681 5681 5681 5682 5685 5688 5690 5691 5691 5692 5692 5691 5691 5689 5685 5681 5677 5672 5663 5654 5644 5630 5615 5598 5585 5573 5564 5554 5550 5550 5551 5553 5555 5557 5560 5561 5564 5572 5582 5593 5606 5620 5634 5647 5656 5664
5662 5661 5661 5662 5665 5669 5674 5679 5680 5681 5683 5684 5684 5684 5683 5680 5677 5672 5667 5659 5652 5640 5626 5609 5594 5581 5575 5567 5559 5554 5554 5555 5557 5558 5560 5563 5568 5570 5577 5590 5602 5616 5633 5641 5650 5658 5663
5637 5634 5634 5637 5644 5650 5659 5665 5670 5671 5673 5675 5676 5677 5678 5676 5672 5668 5664 5656 5647 5637 5623 5607 5594 5587 5580 5573 5567 5562 5560 5559 5559 5562 5565 5568 5571 5575 5582 5594 5606 5617 5630 5640 5653 5661 5664
5598 5595 5596 5603 5614 5627 5639 5649 5656 5659 5663 5666 5668 5670 5671 5672 5669 5665 5660 5654 5645 5635 5624 5609 5598 5591 5586 5581 5576 5572 5568 5566 5567 5569 5570 5573 5577 5581 5590 5600 5611 5620 5631 5639 5649 5657 5665
5572 5567 5563 5565 5579 5598 5617 5632 5642 5649 5653 5657 5660 5662 5665 5666 5666 5661 5658 5651 5643 5635 5623 5613 5603 5597 5593 5588 5584 5579 5573 5572 5572 5576 5579 5581 5585 5590 5599 5608 5617 5625 5632 5643 5653 5661 5665
5538 5531 5529 5529 5539 5567 5593 5613 5626 5636 5643 5649 5652 5655 5660 5662 5661 5659 5656 5649 5641 5634 5624 5615 5609 5605 5601 5597 5592 5586 5584 5584 5585 5585 5588 5593 5597 5601 5606 5613 5621 5631 5638 5645 5650 5658 5667
5507 5501 5494 5494 5506 5538 5571 5595 5612 5624 5632 5639 5643 5650 5655 5658 5656 5657 5653 5647 5640 5636 5624 5616 5613 5611 5608 5602 5597 5593 5592 5595 5594 5593 5596 5600 5605 5608 5612 5619 5627 5633 5641 5649 5656 5659 5663
5492 5485 5482 5480 5487 5518 5553 5579 5598 5611 5622 5629 5636 5644 5650 5653 5653 5653 5651 5646 5642 5635 5624 5620 5616 5615 5614 5610 5606 5602 5602 5603 5604 5606 5606 5608 5613 5616 5620 5625 5631 5637 5643 5651 5657 5660 5666
5485 5479 5477 5473 5480 5508 5540 5565 5586 5601 5612 5621 5630 5639 5645 5647 5649 5650 5649 5646 5641 5634 5624 5621 5620 5620 5619 5617 5614 5612 5612 5612 5612 5614 5616 5618 5620 5622 5626 5631 5635 5638 5647 5651 5655 5662 5667
5482 5477 5475 5478 5486 5509 5535 5557 5577 5591 5604 5614 5625 5633 5640 5642 5646 5648 5647 5643 5640 5635 5626 5624 5623 5623 5623 5624 5621 5620 5621 5621 5621 5621 5623 5623 5625 5628 5632 5635 5639 5643 5650 5655 5658 5664 5669
5484 5480 5477 5479 5485 5507 5532 5553 5571 5586 5597 5607 5619 5627 5635 5638 5643 5645 5646 5642 5640 5635 5629 5627 5628 5627 5627 5627 5628 5626 5627 5627 5628 5628 5629 5630 5631 5633 5636 5638 5642 5647 5652 5656 5660 5665 5669
5484 5480 5477 5476 5484 5504 5527 5549 5567 5581 5593 5605 5614 5625 5631 5636 5641 5642 5644 5641 5640 5636 5632 5629 5629 5630 5630 5630 5631 5632 5633 5633 5632 5633 5634 5635 5636 5638 5640 5642 5645 5649 5652 5655 5660 5665 5668
5485 5482 5482 5481 5491 5509 5530 5548 5562 5578 5589 5602 5611 5622 5627 5634 5639 5640 5642 5641 5640 5638 5635 5632 5630 5633 5634 5634 5635 5635 5636 5637 5637 5638 5638 5639 5639 5640 5643 5646 5649 5652 5654 5657 5660 5665 5667
5484 5485 5486 5491 5503 5521 5537 5550 5563 5575 5589 5599 5609 5618 5625 5631 5636 5638 5641 5642 5641 5640 5638 5634 5632 5635 5635 5636 5637 5637 5638 5639 5640 5641 5641 5642 5643 5645 5646 5649 5650 5652 5654 5656 5659 5661 5663
5484 5485 5489 5502 5514 5530 5544 5554 5564 5576 5589 5598 5608 5617 5624 5629 5634 5637 5640 5642 5642 5642 5641 5638 5636 5636 5637 5638 5638 5638 5639 5641 5642 5642 5644 5646 5646 5647 5648 5650 5651 5651 5652 5654 5656 5659 5660
5487 5490 5501 5512 5524 5535 5546 5557 5566 5577 5587 5597 5607 5616 5622 5628 5633 5637 5640 5642 5642 5644 5644 5641 5638 5637 5638 5639 5640 5640 5640 5641 5642 5642 5643 5644 5645 5647 5648 5648 5649 5650 5652 5653 5654 5655 5656
5493 5500 5507 5518 5529 5540 5549 5559 5567 5577 5586 5596 5606 5614 5620 5626 5632 5636 5640 5641 5642 5644 5645 5644 5642 5640 5640 5639 5641 5641 5642 5642 5643 5643 5643 5644 5644 5644 5646 5647 5648 5650 5651 5653 5653 5653 5654
5493 5504 5513 5521 5529 5536 5545 5556 5567 5576 5586 5594 5604 5612 5620 5625 5630 5636 5639 5641 5643 5644 5646 5646 5645 5644 5643 5643 5642 5642 5643 5642 5643 5643 5642 5643 5642 5643 5645 5645 5646 5648 5648 5649 5649 5649 5649
5496 5504 5515 5523 5531 5538 5546 5557 5566 5577 5585 5593 5603 5612 5619 5624 5630 5634 5638 5641 5643 5645 5647 5648 5648 5648 5647 5646 5646 5645 5645 5644 5643 5643 5642 5642 5642 5642 5642 5643 5644 5644 5643 5644 5644 5643 5642
5498 5506 5517 5526 5534 5542 5551 5559 5568 5576 5585 5594 5603 5611 5618 5623 5628 5633 5638 5641 5644 5646 5648 5649 5650 5650 5649 5648 5647 5647 5647 5646 5645 5644 5643 5642 5641 5641 5641 5641 5642 5640 5640 5639 5638 5638 5634
5506 5511 5519 5529 5537 5544 5553 5560 5570 5577 5586 5595 5603 5611 5617 5623 5628 5633 5637 5641 5644 5646 5648 5649 5651 5651 5651 5650 5649 5648 5647 5646 5646 5645 5643 5643 5642 5641 5639 5639 5639 5638 5636 5634 5633 5633 5628
5514 5518 5524 5533 5541 5549 5556 5564 5570 5577 5587 5596 5603 5610 5616 5622 5627 5632 5636 5641 5644 5646 5648 5649 5650 5651 5651 5650 5649 5648 5647 5646 5645 5644 5642 5641 5640 5639 5638 5637 5636 5634 5632 5630 5629 5629 5622
5520 5526 5533 5538 5545 5551 5560 5567 5572 5579 5588 5596 5604 5610 5616 5621 5626 5631 5635 5639 5643 5645 5647 5649 5650 5650 5650 5649 5649 5648 5646 5645 5644 5643 5641 5640 5638 5636 5634 5632 5632 5628 5626 5624 5622 5619 5616
5528 5533 5538 5544 5550 5556 5564 5570 5574 5579 5586 5595 5603 5611 5617 5622 5625 5630 5634 5638 5641 5644 5646 5647 5648 5648 5649 5648 5648 5646 5645 5643 5642 5641 5639 5637 5636 5634 5631 5628 5624 5622 5619 5616 5613 5611 5607
Wind_Speed
49 47 50 48 45 41 38 36 34 38 35 40 37 36 34 35 37 37 39 43 45 52 58 66 69 66 62 57 55 50 43 42 39 34 32 36 45 62 64 61 59 63 66 61 67 47 59
47 48 50 50 48 45 43 35 31 28 35 38 34 37 35 35 35 36 40 42 46 54 61 67 68 65 60 56 52 39 34 37 28 21 18 26 34 45 62 63 60 61 68 58 67 48 59
56 47 49 51 51 47 44 38 29 31 31 37 34 34 34 34 34 34 40 41 47 56 63 66 66 64 59 58 42 30 30 27 14 12 11 19 17 35 51 63 59 63 69 74 59 53 59
57 59 49 51 50 47 46 40 30 26 27 35 32 33 34 32 31 33 39 41 48 57 63 63 64 61 58 48 32 23 21 16 12 13 11 11 16 27 36 61 61 60 67 69 65 58 46
61 62 58 53 54 50 47 43 34 27 27 31 32 30 35 32 28 31 37 41 49 57 60 61 61 58 50 33 23 21 12 10 9 13 15 12 13 25 36 52 61 62 70 77 52 46 49
61 65 62 58 56 54 49 45 38 28 27 30 31 26 35 32 24 30 36 41 49 56 56 58 55 47 32 24 22 10 4 8 9 13 8 16 20 33 26 50 59 63 73 65 52 47 39
63 63 65 64 58 56 50 47 42 30 26 26 29 22 32 32 23 28 34 41 48 51 53 55 44 27 28 24 23 13 8 8 9 9 9 17 24 19 25 44 53 55 64 68 56 48 36
75 76 73 68 64 58 52 48 45 34 29 26 33 19 30 31 22 26 32 39 45 47 47 42 21 30 30 25 18 17 9 5 1 6 13 13 13 23 30 42 51 54 59 54 56 38 49
71 72 77 80 71 63 53 49 47 37 31 25 26 18 28 25 21 24 29 37 41 42 41 26 23 28 26 30 29 23 22 13 15 19 17 22 25 25 33 42 45 53 56 55 63 45 24
67 68 70 70 80 72 58 48 48 37 30 27 25 23 28 22 18 20 26 33 35 36 31 20 22 24 24 23 20 24 20 32 22 15 11 15 30 23 33 38 38 49 54 52 62 34 18
74 70 66 69 71 77 63 50 47 37 30 27 30 20 25 18 16 18 23 29 30 32 24 22 20 19 17 24 17 19 21 21 18 11 17 35 30 15 28 27 35 39 47 49 42 39 22
58 64 52 42 60 77 67 55 46 40 30 28 35 18 21 18 13 13 19 24 24 28 19 20 22 18 16 21 19 17 18 16 21 22 18 12 15 20 19 28 20 30 33 41 34 46 25
52 37 32 31 41 74 66 58 48 40 32 26 32 18 19 16 10 10 14 19 20 23 30 21 22 20 21 21 26 24 27 27 31 29 16 15 12 19 24 34 24 24 25 26 26 32 36
27 20 21 23 39 72 67 60 48 40 35 31 25 21 19 14 9 7 9 15 17 23 27 23 22 20 22 24 17 23 23 17 12 16 18 19 18 20 26 19 23 25 22 24 25 23 27
12 11 6 4 39 71 66 61 45 40 34 34 23 24 22 14 9 4 7 11 14 21 27 21 18 13 14 22 24 29 23 20 19 13 15 16 15 16 20 21 18 19 26 18 21 20 16
12 9 10 10 53 70 64 56 45 40 37 32 27 25 22 16 10 3 6 9 12 20 24 20 16 20 15 12 14 11 12 12 12 13 12 13 11 13 16 18 11 16 18 16 18 17 16
8 9 10 20 66 68 59 53 44 39 36 30 32 26 23 18 11 6 7 10 12 18 21 20 19 18 19 14 11 9 6 7 8 10 10 8 6 5 8 11 12 15 17 20 20 20 20
6 13 11 56 68 64 59 48 43 41 40 33 33 30 24 19 13 10 10 13 16 19 20 20 19 14 15 15 8 1 2 6 5 6 8 9 10 9 5 6 12 17 19 21 23 22 23
10 12 22 61 60 60 54 42 40 41 36 34 29 31 26 21 17 13 14 16 17 20 20 20 20 13 11 9 4 3 1 3 4 5 6 11 13 11 9 6 3 8 16 22 21 23 21
11 9 46 56 55 53 44 42 40 36 35 34 37 30 27 22 19 15 14 17 18 22 23 20 21 17 13 9 5 3 3 2 1 2 2 0 4 8 7 2 4 7 10 12 19 24 28
5 27 51 53 52 52 44 41 40 36 38 34 37 30 29 24 20 17 15 18 17 18 20 21 22 17 13 10 8 7 6 5 5 4 3 2 4 4 5 6 6 6 7 7 7 11 14
23 47 55 51 41 40 39 39 38 38 38 36 34 31 29 25 21 20 17 17 18 16 16 17 21 22 19 16 12 9 4 2 2 1 2 2 3 3 2 4 8 11 11 11 12 16 16
39 35 44 37 37 42 38 40 38 39 33 37 36 32 29 27 24 20 19 18 17 17 18 17 19 22 23 21 19 18 14 13 5 2 1 3 4 5 6 8 9 10 14 16 18 19 22
36 33 36 40 41 44 40 40 36 36 31 40 38 34 30 27 24 22 18 16 16 15 14 14 16 18 21 21 19 20 21 18 16 13 8 2 1 4 7 11 11 16 16 18 22 25 27
35 40 42 41 40 40 42 41 28 20 38 42 38 34 31 28 26 22 19 16 14 12 12 11 13 13 14 17 16 14 17 17 16 17 15 12 10 6 4 7 8 12 16 18 19 23 27
35 37 41 43 42 42 43 36 26 25 41 42 38 33 31 27 25 22 19 16 14 12 11 9 7 6 6 8 10 11 11 11 13 12 11 12 13 10 6 5 6 9 14 15 18 19 26
34 39 43 41 41 38 41 39 26 27 41 39 37 31 30 27 25 21 18 16 14 12 10 8 6 5 3 3 4 5 6 8 9 10 11 12 12 11 10 5 7 10 7 10 12 16 21
35 37 40 41 41 38 37 34 28 25 31 36 41 32 27 26 24 21 19 17 14 12 10 9 7 5 3 2 2 3 5 6 7 9 10 11 12 14 15 12 11 14 14 16 16 18 21
33 34 39 40 41 37 35 31 23 24 27 43 38 36 29 23 24 22 19 17 15 12 11 10 9 6 7 7 7 6 6 8 8 9 10 12 14 15 17 16 19 18 19 20 21 22 25
Wind_Direction
299 292 293 291 289 287 294 302 307 301 303 283 284 290 293 297 301 307 313 314 314 314 315 316 320 320 318 314 312 308 300 295 289 273 254 240 230 222 218 214 212 207 204 209 201 195 206
293 290 286 290 290 287 284 294 299 308 310 300 281 289 297 299 303 309 313 313 315 315 316 319 321 321 319 314 314 309 300 302 285 277 259 238 226 217 213 207 206 203 198 189 204 192 209
292 283 280 283 286 288 284 282 292 300 306 301 278 289 295 300 304 309 314 314 316 315 318 323 322 322 320 317 316 310 308 305 271 232 237 215 209 199 210 203 201 201 199 212 183 183 197
291 287 278 277 279 282 282 279 282 294 304 304 282 287 295 300 303 306 314 314 315 317 322 324 323 323 320 319 318 311 311 298 233 243 206 199 202 196 201 200 199 199 196 197 188 204 192
288 284 279 276 277 275 277 277 271 288 297 302 283 284 295 298 300 308 313 312 315 321 325 327 326 326 323 325 323 311 303 272 229 220 192 202 217 202 187 197 196 198 194 188 187 176 206
281 280 276 271 270 270 270 272 272 276 291 289 282 281 292 294 296 311 310 312 319 324 329 330 331 331 340 347 329 313 265 237 211 209 202 173 196 152 160 190 194 194 195 199 195 193 195
280 276 272 268 264 263 261 265 267 264 271 271 270 285 287 293 296 312 311 314 323 328 331 337 339 359 64 48 49 75 131 195 234 235 179 205 174 187 176 187 189 194 193 199 196 199 202
281 275 267 262 259 255 254 254 257 257 258 272 258 286 287 294 294 311 310 318 326 332 338 346 24 67 55 52 60 76 82 110 248 177 186 156 168 174 170 180 187 190 194 200 202 200 219
288 280 268 257 251 248 243 243 247 248 251 250 255 270 282 286 296 309 311 320 332 338 346 12 82 73 61 62 58 54 60 80 149 140 152 139 152 149 166 181 188 189 195 197 198 205 199
291 286 277 265 246 240 233 233 238 240 240 251 254 251 268 275 294 303 314 325 335 346 358 44 94 75 57 53 45 52 87 117 153 155 152 160 142 110 158 183 190 192 195 201 207 209 202
299 289 280 263 246 225 226 221 226 227 231 244 237 260 264 264 290 300 317 328 339 357 16 55 90 70 54 40 47 57 131 123 109 104 142 142 125 94 147 166 187 195 199 203 198 207 203
302 298 292 266 239 214 214 210 215 219 227 217 240 242 244 253 280 296 321 331 347 8 43 93 93 82 59 35 58 73 116 120 90 107 110 148 108 114 168 164 166 197 203 209 215 209 220
309 302 297 284 226 201 202 204 210 210 216 210 223 225 232 244 258 292 326 338 357 17 43 99 90 75 64 68 62 86 114 112 94 109 119 123 133 124 156 165 161 166 179 198 210 220 221
300 303 313 286 197 191 193 198 200 203 204 221 220 218 223 226 232 283 342 350 2 27 54 86 104 93 70 66 65 102 135 121 85 114 120 131 131 131 150 157 143 151 165 184 185 208 224
321 336 326 344 180 185 190 193 197 188 200 218 209 212 210 200 208 257 21 7 13 36 57 88 110 99 87 80 96 98 112 102 94 92 97 92 126 128 152 165 157 142 172 175 173 167 176
347 345 102 188 176 182 187 188 190 189 199 208 190 201 202 188 192 187 70 35 34 42 61 83 99 113 112 89 107 97 81 89 91 90 92 81 90 119 142 135 176 180 193 184 181 184 172
355 143 168 183 175 178 183 186 178 185 199 187 191 191 189 180 181 142 99 71 55 59 59 79 107 110 122 118 96 87 65 34 42 66 55 54 58 80 123 160 163 184 203 214 217 216 223
251 206 190 176 169 174 178 173 174 189 186 182 190 188 180 173 166 137 112 90 79 76 67 78 95 118 136 132 133 85 20 26 21 41 17 42 66 88 95 177 181 194 202 213 219 226 235
254 262 199 169 162 175 177 174 178 186 174 187 185 185 172 166 156 141 117 104 89 87 77 74 88 104 123 165 184 211 226 91 72 47 59 84 81 75 84 99 174 231 239 241 233 229 231
273 240 174 164 162 172 170 172 183 172 181 188 175 177 168 167 155 144 127 114 100 90 84 82 80 88 105 123 140 178 199 267 10 52 76 227 7 353 345 287 223 220 230 243 249 250 245
199 163 159 154 158 160 167 172 175 177 182 180 176 173 168 169 158 148 137 123 111 99 88 81 80 78 101 101 96 108 105 93 66 52 36 311 319 328 312 285 256 260 238 242 245 253 255
154 162 158 152 157 168 160 165 169 176 182 180 174 173 169 168 160 152 142 127 120 108 101 91 84 78 69 70 72 75 95 110 120 122 53 332 299 289 283 269 245 253 264 269 275 283 279
145 150 164 163 170 167 166 165 173 185 178 175 175 171 168 168 165 160 154 140 128 116 111 102 96 93 84 77 74 67 65 59 52 57 300 261 263 274 283 280 276 273 275 279 276 275 275
154 152 161 162 164 164 165 171 175 179 188 175 172 169 169 168 172 164 162 154 146 129 122 115 103 98 99 94 90 87 81 71 64 61 70 52 336 280 269 275 283 286 285 281 286 290 287
154 151 158 162 159 166 172 167 164 181 188 176 170 171 170 171 172 170 170 162 155 153 142 122 122 111 103 98 93 90 83 83 77 72 62 53 48 37 336 293 285 288 286 288 285 282 280
156 153 158 155 164 168 168 157 172 177 178 176 168 170 173 174 175 175 176 178 177 165 160 150 155 128 109 95 89 82 74 75 69 66 66 57 60 55 26 8 351 350 316 303 298 284 279
162 161 154 158 165 167 166 171 172 163 178 178 167 167 171 179 181 180 180 185 188 188 184 178 168 162 141 79 69 59 54 54 60 53 47 42 37 37 38 21 357 349 330 317 305 305 298
160 156 160 167 169 163 165 173 160 158 186 185 179 178 175 182 185 187 188 192 196 199 203 209 206 210 235 267 335 6 11 15 21 20 13 9 5 7 3 356 341 336 328 306 301 292 280
169 166 166 171 170 164 167 168 163 173 177 190 188 191 189 184 187 193 196 198 200 208 217 227 233 249 259 274 287 296 308 322 331 342 344 347 346 350 350 339 333 327 322 321 312 300 288